Location: Kunchanapalle
(16.4623°N, 80.6176°E)
Time: 09:57:01
(UTC+00:00)

Cosmos 1484 Rocket - Pass Details

Date: 13 August 2020
Orbit: 506 x 559 km, 97.4° (Epoch: 18 September)

Event Time Altitude Azimuth Distance (km) Brightness Sun altitude
Rises 22:41:45 0° 22° (NNE) 2,609 7.0 -23.4°
Reaches altitude 10° 22:43:56 10° 31° (NNE) 1,728 6.1 -22.9°
Maximum altitude 22:47:24 37° 100° (E) 808 4.1 -22.1°
Enters shadow 22:50:12 15° 164° (SSE) 1,479 4.9 -21.5°
